{"data":{"norad_id":53967,"intl_designator":"2022-125D","name":"STARLINK-4634","alt_names":[],"object_type":"PAYLOAD","status":"ACTIVE","operator":null,"country":"US","launch_date":"2022-10-05","launch_site_code":"AFWTR","launch_vehicle":null,"mission":null,"orbit_class":"UNKNOWN","rcs_meters":null,"size_class":null,"mass_kg":null,"dimensions":null,"purposes":["comms"],"wikipedia_slug":null,"has_3d_model":false,"image_url":null,"decayed_at":null,"tle_current":{"epoch":"2026-05-24T17:55:22.376928Z","epoch_age_seconds":93132,"freshness":"FRESH","line1":"1 53967U 22125D   26144.74678677  .00000864  00000+0  72387-4 0  9999","line2":"2 53967  53.2128 242.7220 0001162  94.1990 265.9135 15.08841705200804","mean_motion":15.08841705,"eccentricity":0.0001162,"inclination_deg":53.2128,"raan_deg":242.722,"arg_perigee_deg":94.199,"mean_anomaly_deg":265.9135,"bstar":7.2387e-5,"rev_number":20080,"period_min":95.437446832768,"perigee_km":538.93432037049,"apogee_km":540.54203456173,"semimajor_km":6917.8751774661,"source":"CELESTRAK","updated_at":"2026-05-25T13:38:17.617259Z"}}}